KC5AYO Weather Reports


Display with metric or nautical units.
time (UTC)temp
F
wind
direction
speed
MPH
gust
MPH
rain 1hr
in
rain 24hr
in
rain mn
in
humidity
%
barometer
mb
20260901164525 90 134 0.0 2.0 0.00 0.00 0.00 65 1016.3
20260901164025 90 306 0.0 2.0 0.00 0.00 0.00 64 1016.3
20260901163522 89 226 0.0 2.0 0.00 0.00 0.00 64 1016.4
20260901163027 89 219 0.0 2.0 0.00 0.00 0.00 69 1016.4
20260901162520 89 125 0.0 2.0 0.00 0.00 0.00 67 1016.4
20260901162020 88 308 0.0 2.0 0.00 0.00 0.00 64 1016.5
20260901161516 88 257 0.0 2.0 0.00 0.00 0.00 68 1016.5
20260901161016 87 304 0.0 3.0 0.00 0.00 0.00 69 1016.7
20260901160517 87 303 0.0 3.0 0.00 0.00 0.00 70 1016.8
20260901160015 86 302 0.0 5.0 0.00 0.00 0.00 71 1016.8
20260901155514 86 308 0.0 5.0 0.00 0.00 0.00 69 1016.7
20260901155014 86 329 1.0 2.0 0.00 0.00 0.00 69 1016.8
20260901154513 86 16 0.0 2.0 0.00 0.00 0.00 74 1016.8
20260901154012 86 289 0.0 2.0 0.00 0.00 0.00 70 1016.8
20260901153511 85 341 0.0 3.0 0.00 0.00 0.00 70 1016.7
20260901153009 85 15 0.0 3.0 0.00 0.00 0.00 70 1016.8
20260901152511 85 47 0.0 2.0 0.00 0.00 0.00 73 1016.8
20260901152010 85 283 0.0 2.0 0.00 0.00 0.00 72 1016.7
20260901151506 84 121 0.0 2.0 0.00 0.00 0.00 72 1016.7
20260901151005 84 306 0.0 2.0 0.00 0.00 0.00 73 1016.7
20260901150503 84 163 0.0 2.0 0.00 0.00 0.00 73 1016.6
20260901150006 84 5 0.0 4.0 0.00 0.00 0.00 76 1016.6
20260901145502 83 105 0.0 4.0 0.00 0.00 0.00 74 1016.7
20260901145100 83 188 0.0 3.0 0.00 0.00 0.00 76 1016.7
20260901144600 83 271 0.0 4.0 0.00 0.00 0.00 77 1016.7
20260901144102 82 209 0.0 4.0 0.00 0.00 0.00 76 1016.8
20260901143558 82 124 1.0 4.0 0.00 0.00 0.00 76 1016.8
20260901143106 82 329 0.0 3.0 0.00 0.00 0.00 77 1016.7
20260901142555 82 178 0.0 3.0 0.00 0.00 0.00 78 1016.8
20260901142054 81 189 0.0 2.0 0.00 0.00 0.00 78 1016.9
20260901141602 81 220 0.0 2.0 0.00 0.00 0.00 78 1016.8
20260901141054 81 13 0.0 2.0 0.00 0.00 0.00 79 1016.8
20260901140551 80 78 0.0 3.0 0.00 0.00 0.00 79 1017.0
20260901140050 80 159 0.0 3.0 0.00 0.00 0.00 81 1016.8
20260901135549 79 229 0.0 3.0 0.00 0.00 0.00 82 1016.9
20260901135048 79 147 0.0 2.0 0.00 0.00 0.00 83 1017.0
20260901134547 79 182 0.0 2.0 0.00 0.00 0.00 83 1017.0
20260901134045 78 186 0.0 1.0 0.00 0.00 0.00 83 1017.0
20260901133547 78 216 0.0 0.0 0.00 0.00 0.00 83 1017.1
20260901133047 78 166 0.0 0.0 0.00 0.00 0.00 84 1017.3
20260901132541 77 192 0.0 0.0 0.00 0.00 0.00 84 1017.2
20260901132040 77 15 0.0 0.0 0.00 0.00 0.00 85 1017.3
20260901131541 76 200 0.0 0.0 0.00 0.00 0.00 86 1017.1
20260901131042 76 259 0.0 0.0 0.00 0.00 0.00 86 1017.0
20260901130537 76 213 0.0 0.0 0.00 0.00 0.00 87 1017.0
20260901130037 76 213 0.0 0.0 0.00 0.00 0.00 87 1017.0
20260901125536 75 213 0.0 0.0 0.00 0.00 0.00 87 1017.0
20260901125036 75 213 0.0 0.0 0.00 0.00 0.00 87 1017.0
20260901124536 75 236 0.0 0.0 0.00 0.00 0.00 87 1017.1
20260901124035 75 236 0.0 0.0 0.00 0.00 0.00 87 1017.0
20260901123535 75 200 0.0 0.0 0.00 0.00 0.00 87 1017.0
20260901123039 74 174 0.0 0.0 0.00 0.00 0.00 88 1016.9
20260901122533 74 161 0.0 0.0 0.00 0.00 0.00 88 1016.9
20260901122032 74 180 0.0 0.0 0.00 0.00 0.00 89 1016.9
20260901121531 73 190 0.0 0.0 0.00 0.00 0.00 89 1016.9
20260901121034 73 141 0.0 0.0 0.00 0.00 0.00 90 1016.9
20260901120530 73 145 0.0 0.0 0.00 0.00 0.00 90 1016.9
20260901120030 73 144 0.0 0.0 0.00 0.00 0.00 90 1016.8
20260901115529 73 148 0.0 0.0 0.00 0.00 0.00 89 1016.7
20260901115035 73 148 0.0 0.0 0.00 0.00 0.00 89 1016.6
20260901114529 73 148 0.0 0.0 0.00 0.00 0.00 89 1016.6
20260901114027 73 148 0.0 0.0 0.00 0.00 0.00 89 1016.5
20260901113527 73 153 0.0 0.0 0.00 0.00 0.00 89 1016.6
20260901113026 73 181 0.0 0.0 0.00 0.00 0.00 89 1016.5
20260901112528 73 178 0.0 0.0 0.00 0.00 0.00 89 1016.4
20260901112028 73 178 0.0 0.0 0.00 0.00 0.00 89 1016.2
20260901111526 73 180 0.0 0.0 0.00 0.00 0.00 89 1016.1
20260901111025 73 129 0.0 0.0 0.00 0.00 0.00 89 1016.2
20260901110524 73 129 0.0 0.0 0.00 0.00 0.00 89 1016.1
20260901110024 73 129 0.0 0.0 0.00 0.00 0.00 89 1016.0
20260901105524 73 129 0.0 0.0 0.00 0.00 0.00 89 1016.0
20260901105024 73 129 0.0 0.0 0.00 0.00 0.00 89 1016.1
20260901104526 73 128 0.0 0.0 0.00 0.00 0.00 89 1016.1
20260901104026 73 127 0.0 0.0 0.00 0.00 0.00 88 1016.1
20260901103523 73 123 0.0 0.0 0.00 0.00 0.00 88 1016.0
20260901103021 73 123 0.0 0.0 0.00 0.00 0.00 88 1015.8
20260901102521 73 123 0.0 0.0 0.00 0.00 0.00 89 1015.8
20260901102020 73 123 0.0 0.0 0.00 0.00 0.00 88 1015.7
20260901101520 74 123 0.0 0.0 0.00 0.00 0.00 88 1015.8
20260901101022 74 123 0.0 0.0 0.00 0.00 0.00 88 1015.7
20260901100521 74 123 0.0 0.0 0.00 0.00 0.00 88 1015.7
20260901100018 74 123 0.0 0.0 0.00 0.00 0.00 89 1015.7
20260901095519 74 115 0.0 1.0 0.00 0.00 0.00 89 1015.6
20260901095019 74 115 0.0 1.0 0.00 0.00 0.00 89 1015.7
20260901094519 73 186 0.0 0.0 0.00 0.00 0.00 90 1015.6
20260901094019 73 186 0.0 0.0 0.00 0.00 0.00 91 1015.5
20260901093518 73 186 0.0 0.0 0.00 0.00 0.00 91 1015.5
20260901093017 73 186 0.0 0.0 0.00 0.00 0.00 91 1015.5
20260901092517 73 186 0.0 0.0 0.00 0.00 0.00 91 1015.5
20260901092017 73 186 0.0 0.0 0.00 0.00 0.00 91 1015.4
20260901091517 73 186 0.0 0.0 0.00 0.00 0.00 91 1015.4
20260901091016 73 186 0.0 0.0 0.00 0.00 0.00 90 1015.5
20260901090516 73 186 0.0 0.0 0.00 0.00 0.00 90 1015.5
20260901090018 73 186 0.0 0.0 0.00 0.00 0.00 91 1015.4
20260901085516 73 186 0.0 0.0 0.00 0.00 0.00 91 1015.4
20260901085016 73 186 0.0 0.0 0.00 0.00 0.00 90 1015.4
20260901084515 73 186 0.0 0.0 0.00 0.00 0.00 91 1015.4
20260901084015 73 186 0.0 0.0 0.00 0.00 0.00 91 1015.3
20260901083515 73 186 0.0 0.0 0.00 0.00 0.00 91 1015.4
20260901083015 73 186 0.0 0.0 0.00 0.00 0.00 91 1015.4
20260901082514 73 186 0.0 0.0 0.00 0.00 0.00 91 1015.4
20260901082016 73 186 0.0 0.0 0.00 0.00 0.00 91 1015.3
20260901081514 73 186 0.0 0.0 0.00 0.00 0.00 92 1015.3
20260901081014 73 186 0.0 0.0 0.00 0.00 0.00 92 1015.2
20260901080513 73 186 0.0 0.0 0.00 0.00 0.00 93 1015.1
20260901080013 73 186 0.0 0.0 0.00 0.00 0.00 93 1015.2
20260901075513 73 186 0.0 0.0 0.00 0.00 0.00 93 1015.2
20260901075018 73 186 0.0 0.0 0.00 0.00 0.00 93 1015.1
20260901074512 73 186 0.0 0.0 0.00 0.00 0.00 93 1015.1
20260901074017 73 186 0.0 0.0 0.00 0.00 0.00 92 1015.1
20260901073511 73 186 0.0 0.0 0.00 0.00 0.00 92 1015.0
20260901073010 73 186 0.0 0.0 0.00 0.00 0.00 92 1015.0
20260901072509 74 186 0.0 0.0 0.00 0.00 0.00 92 1015.0
20260901072008 74 186 0.0 0.0 0.00 0.00 0.00 92 1015.0
20260901071508 74 186 0.0 0.0 0.00 0.00 0.00 92 1015.0
20260901071007 74 186 0.0 0.0 0.00 0.00 0.00 92 1015.0
20260901070507 74 186 0.0 0.0 0.00 0.00 0.00 92 1015.1
20260901070010 74 186 0.0 0.0 0.00 0.00 0.00 92 1015.1
20260901065507 74 186 0.0 0.0 0.00 0.00 0.00 92 1015.2
20260901065007 74 186 0.0 0.0 0.00 0.00 0.00 92 1015.2
20260901064507 74 188 0.0 0.0 0.00 0.00 0.00 92 1015.2
20260901064007 74 185 0.0 0.0 0.00 0.00 0.00 92 1015.1
20260901063505 74 167 0.0 0.0 0.00 0.00 0.00 92 1015.2
20260901063011 74 167 0.0 0.0 0.00 0.00 0.00 92 1015.2
20260901062503 74 167 0.0 0.0 0.00 0.00 0.00 92 1015.4
20260901062003 74 167 0.0 0.0 0.00 0.00 0.00 92 1015.5
20260901061502 74 167 0.0 0.0 0.00 0.00 0.00 92 1015.5
20260901061002 74 167 0.0 0.0 0.00 0.00 0.00 92 1015.5
20260901060500 74 167 0.0 0.0 0.00 0.00 0.00 92 1015.5
20260901060002 75 167 0.0 0.0 0.00 0.00 0.00 92 1015.6
20260901055600 75 167 0.0 0.0 0.00 0.00 0.00 92 1015.7
20260901055100 75 167 0.0 0.0 0.00 0.00 0.00 92 1015.6
20260901054600 75 167 0.0 0.0 0.00 0.00 0.00 92 1015.7
20260901054103 75 167 0.0 0.0 0.00 0.00 0.00 92 1015.7
20260901053600 75 167 0.0 0.0 0.00 0.00 0.00 92 1015.7
20260901053105 75 167 0.0 0.0 0.00 0.00 0.00 92 1015.7
20260901052559 75 167 0.0 0.0 0.00 0.00 0.00 92 1015.7
20260901052058 75 167 0.0 0.0 0.00 0.00 0.00 92 1015.6
20260901051606 75 167 0.0 0.0 0.00 0.00 0.00 93 1015.7
20260901051058 75 167 0.0 0.0 0.00 0.00 0.00 93 1015.6
20260901050558 75 167 0.0 0.0 0.00 0.00 0.00 93 1015.6
20260901050058 75 167 0.0 0.0 0.00 0.00 0.00 93 1015.6
20260901045558 75 167 0.0 0.0 0.00 0.00 0.00 92 1015.6
20260901045056 75 167 0.0 0.0 0.00 0.00 0.00 92 1015.6
20260901044604 75 167 0.0 0.0 0.00 0.00 0.00 92 1015.5
20260901044056 75 167 0.0 0.0 0.00 0.00 0.00 92 1015.6
20260901043556 75 167 0.0 0.0 0.00 0.00 0.00 93 1015.6
20260901043055 75 167 0.0 0.0 0.00 0.00 0.00 92 1015.6
20260901042554 75 167 0.0 0.0 0.00 0.00 0.00 91 1015.6
20260901042053 76 167 0.0 0.0 0.00 0.00 0.00 91 1015.6
20260901041615 76 167 0.0 0.0 0.00 0.00 0.00 91 1015.7
20260901041052 76 167 0.0 0.0 0.00 0.00 0.00 92 1015.6
20260901040552 76 167 0.0 0.0 0.00 0.00 0.00 92 1015.5
20260901040125 76 167 0.0 0.0 0.00 0.00 0.00 91 1015.5
20260901035551 76 167 0.0 0.0 0.00 0.00 0.00 91 1015.6
20260901035051 77 167 0.0 0.0 0.00 0.00 0.00 91 1015.6
20260901034551 76 167 0.0 0.0 0.00 0.00 0.00 90 1015.6
20260901034054 76 167 0.0 0.0 0.00 0.00 0.00 89 1015.7
20260901033554 77 167 0.0 0.0 0.00 0.00 0.00 89 1015.6
20260901033050 77 167 0.0 0.0 0.00 0.00 0.00 88 1015.7
20260901032551 77 167 0.0 0.0 0.00 0.00 0.00 88 1015.7
20260901032050 77 167 0.0 0.0 0.00 0.00 0.00 87 1015.8
20260901031550 78 167 0.0 0.0 0.00 0.00 0.00 87 1015.7
20260901031049 78 167 0.0 0.0 0.00 0.00 0.00 87 1015.8
20260901030549 78 167 0.0 0.0 0.00 0.00 0.00 87 1015.7
20260901030049 78 167 0.0 0.0 0.00 0.00 0.00 86 1015.8
20260901025549 78 167 0.0 0.0 0.00 0.00 0.00 86 1015.8
20260901025053 78 167 0.0 0.0 0.00 0.00 0.00 86 1015.8
20260901024553 78 167 0.0 0.0 0.00 0.00 0.00 86 1015.7
20260901024049 78 167 0.0 0.0 0.00 0.00 0.00 86 1015.7
20260901023549 79 167 0.0 0.0 0.00 0.00 0.00 86 1015.7
20260901023049 78 167 0.0 0.0 0.00 0.00 0.00 86 1015.7
20260901022548 78 167 0.0 0.0 0.00 0.00 0.00 86 1015.7
20260901022048 79 167 0.0 0.0 0.00 0.00 0.00 86 1015.7
20260901021548 79 167 0.0 0.0 0.00 0.00 0.00 86 1015.6
20260901021048 79 167 0.0 0.0 0.00 0.00 0.00 85 1015.5
20260901020548 79 167 0.0 0.0 0.00 0.00 0.00 84 1015.5
20260901020048 80 167 0.0 0.0 0.00 0.00 0.00 83 1015.5
20260901015548 80 167 0.0 0.0 0.00 0.00 0.00 82 1015.3
20260901015047 80 167 0.0 0.0 0.00 0.00 0.00 81 1015.4
20260901014547 80 167 0.0 0.0 0.00 0.00 0.00 81 1015.3
20260901014047 81 167 0.0 0.0 0.00 0.00 0.00 82 1015.2
20260901013547 80 167 0.0 0.0 0.00 0.00 0.00 82 1015.1
20260901013052 80 167 0.0 0.0 0.00 0.00 0.00 82 1015.0
20260901012545 80 167 0.0 0.0 0.00 0.00 0.00 82 1015.0
20260901012045 80 167 0.0 0.0 0.00 0.00 0.00 81 1015.1
20260901011545 81 167 0.0 0.0 0.00 0.00 0.00 80 1015.1
20260901011045 81 167 0.0 0.0 0.00 0.00 0.00 80 1015.1
20260901010545 81 167 0.0 0.0 0.00 0.00 0.00 79 1015.0
20260901010057 82 167 0.0 0.0 0.00 0.00 0.00 78 1015.0
20260901005545 82 167 0.0 0.0 0.00 0.00 0.00 78 1014.9
20260901005045 82 167 0.0 0.0 0.00 0.00 0.00 78 1014.8
20260901004545 83 167 0.0 0.0 0.00 0.00 0.00 77 1014.8
20260901004045 83 167 0.0 0.0 0.00 0.00 0.00 76 1014.7
20260901003545 83 165 0.0 0.0 0.00 0.00 0.00 75 1014.7
20260901003045 83 165 0.0 0.0 0.00 0.00 0.00 75 1014.6
20260901002544 84 165 0.0 0.0 0.00 0.00 0.00 75 1014.7
20260901002044 84 165 0.0 0.0 0.00 0.00 0.00 73 1014.7
20260901001544 85 165 0.0 0.0 0.00 0.00 0.00 72 1014.7
20260901001048 85 171 0.0 0.0 0.00 0.00 0.00 71 1014.8
20260901000543 86 254 0.0 0.0 0.00 0.00 0.00 71 1014.7
20260901000143 86 257 0.0 0.0 0.00 0.00 0.00 71 1014.7
20260831235542 86 201 0.0 0.0 0.00 0.00 0.00 71 1014.8
20260831235042 86 198 0.0 0.0 0.00 0.00 0.00 71 1014.8
20260831234542 87 198 0.0 0.0 0.00 0.00 0.00 70 1014.9
20260831234042 87 217 0.0 0.0 0.00 0.00 0.00 71 1015.0
20260831233541 87 211 0.0 0.0 0.00 0.00 0.00 69 1015.0
20260831233046 88 211 0.0 0.0 0.00 0.00 0.00 68 1014.9
20260831232541 88 211 0.0 0.0 0.00 0.00 0.00 67 1015.0
20260831232040 88 201 0.0 0.0 0.00 0.00 0.00 66 1015.0
20260831231541 89 268 0.0 0.0 0.00 0.00 0.00 66 1014.9
20260831231043 89 205 0.0 0.0 0.00 0.00 0.00 64 1014.9
20260831230540 89 196 0.0 0.0 0.00 0.00 0.00 65 1014.9
20260831230046 89 210 0.0 0.0 0.00 0.00 0.00 63 1014.9
20260831225541 89 190 0.0 2.0 0.00 0.00 0.00 64 1014.9
20260831225040 89 135 0.0 2.0 0.00 0.00 0.00 61 1014.9
20260831224540 89 288 0.0 2.0 0.00 0.00 0.00 61 1014.9
20260831224040 90 161 0.0 2.0 0.00 0.00 0.00 64 1014.9
20260831223542 90 155 0.0 2.0 0.00 0.00 0.00 64 1014.9
20260831223039 90 177 0.0 2.0 0.00 0.00 0.00 60 1014.9
20260831222539 90 178 0.0 2.0 0.00 0.00 0.00 60 1014.8
20260831222039 90 285 0.0 2.0 0.00 0.00 0.00 63 1014.9
20260831221543 90 235 0.0 2.0 0.00 0.00 0.00 63 1014.9
20260831221038 90 298 0.0 2.0 0.00 0.00 0.00 62 1014.9
20260831220538 91 154 0.0 2.0 0.00 0.00 0.00 58 1015.0
20260831220038 91 217 0.0 2.0 0.00 0.00 0.00 59 1015.0
20260831215538 90 171 0.0 2.0 0.00 0.00 0.00 60 1015.0
20260831215038 91 238 0.0 2.0 0.00 0.00 0.00 60 1015.0
20260831214542 90 293 0.0 2.0 0.00 0.00 0.00 60 1015.0
20260831214038 90 175 0.0 3.0 0.00 0.00 0.00 60 1015.1
20260831213536 90 212 0.0 3.0 0.00 0.00 0.00 60 1015.1
20260831213040 90 282 0.0 3.0 0.00 0.00 0.00 61 1015.1
20260831212538 90 202 0.0 3.0 0.00 0.00 0.00 59 1015.1
20260831212035 90 150 0.0 3.0 0.00 0.00 0.00 60 1015.1
20260831211536 90 305 0.0 2.0 0.00 0.00 0.00 63 1015.2
20260831211034 90 269 0.0 2.0 0.00 0.00 0.00 62 1015.1
20260831210533 90 299 0.0 1.0 0.00 0.00 0.00 62 1015.2
20260831210032 90 209 0.0 1.0 0.00 0.00 0.00 65 1015.3
20260831205532 90 355 0.0 2.0 0.00 0.00 0.00 64 1015.4
20260831205032 90 165 0.0 2.0 0.00 0.00 0.00 64 1015.8
20260831204532 90 185 0.0 2.0 0.00 0.00 0.00 61 1015.5
20260831204034 90 248 0.0 2.0 0.00 0.00 0.00 63 1015.6
20260831203531 90 187 0.0 2.0 0.00 0.00 0.00 59 1015.6
20260831203030 90 195 0.0 2.0 0.00 0.00 0.00 61 1015.6
20260831202531 90 223 0.0 2.0 0.00 0.00 0.00 61 1015.6
20260831202033 90 252 0.0 2.0 0.00 0.00 0.00 59 1015.7
20260831201533 91 286 0.0 2.0 0.00 0.00 0.00 59 1015.8
20260831201032 91 150 0.0 2.0 0.00 0.00 0.00 56 1015.8
20260831200530 90 125 0.0 2.0 0.00 0.00 0.00 57 1015.9
20260831200031 91 283 0.0 3.0 0.00 0.00 0.00 57 1016.1
20260831195532 92 129 1.0 4.0 0.00 0.00 0.00 57 1016.0
20260831195030 92 122 1.0 3.0 0.00 0.00 0.00 58 1016.1
20260831194529 92 215 0.0 5.0 0.00 0.00 0.00 55 1016.1
20260831194029 92 319 0.0 5.0 0.00 0.00 0.00 57 1016.1
20260831193531 92 162 0.0 5.0 0.00 0.00 0.00 55 1016.3
20260831193034 91 300 1.0 4.0 0.00 0.00 0.00 55 1016.3
20260831192527 92 294 0.0 3.0 0.00 0.00 0.00 59 1016.3
20260831192027 92 200 0.0 3.0 0.00 0.00 0.00 58 1016.3
20260831191530 92 309 0.0 4.0 0.00 0.00 0.00 58 1016.3
20260831191036 92 283 1.0 4.0 0.00 0.00 0.00 56 1016.4
20260831190527 91 336 0.0 2.0 0.00 0.00 0.00 58 1016.5
20260831190028 92 264 0.0 5.0 0.00 0.00 0.00 58 1016.5
20260831185527 92 186 1.0 5.0 0.00 0.00 0.00 55 1016.7
20260831185028 92 339 0.0 2.0 0.00 0.00 0.00 59 1016.7
20260831184526 92 134 0.0 2.0 0.00 0.00 0.00 56 1016.8
20260831184026 92 304 0.0 4.0 0.00 0.00 0.00 58 1016.8
20260831183526 92 107 0.0 4.0 0.00 0.00 0.00 56 1016.8
20260831183025 92 223 0.0 5.0 0.00 0.00 0.00 58 1016.8
20260831182524 92 128 0.0 5.0 0.00 0.00 0.00 57 1016.9
20260831182024 91 284 0.0 3.0 0.00 0.00 0.00 57 1017.0
20260831181524 91 253 0.0 4.0 0.00 0.00 0.00 59 1017.0
20260831181022 91 189 0.0 5.0 0.00 0.00 0.00 61 1017.0
20260831180523 91 130 0.0 5.0 0.00 0.00 0.00 58 1016.9
20260831180022 91 190 1.0 5.0 0.00 0.00 0.00 59 1017.0
20260831175521 91 347 0.0 4.0 0.00 0.00 0.00 59 1017.1
20260831175020 91 168 1.0 4.0 0.00 0.00 0.00 61 1017.0
20260831174521 91 113 0.0 3.0 0.00 0.00 0.00 58 1017.1
20260831174019 91 130 0.0 4.0 0.00 0.00 0.00 60 1017.0
20260831173521 91 119 0.0 4.0 0.00 0.00 0.00 60 1017.2
20260831173019 91 319 0.0 4.0 0.00 0.00 0.00 64 1017.1
20260831172518 91 125 1.0 5.0 0.00 0.00 0.00 60 1017.1
20260831172015 91 246 0.0 2.0 0.00 0.00 0.00 63 1017.2
20260831171518 90 297 0.0 2.0 0.00 0.00 0.00 64 1017.2
20260831171013 90 313 0.0 4.0 0.00 0.00 0.00 64 1017.2
20260831170512 90 126 1.0 4.0 0.00 0.00 0.00 62 1017.4
20260831170027 89 195 0.0 4.0 0.00 0.00 0.00 62 1017.4
20260831165513 89 295 0.0 4.0 0.00 0.00 0.00 66 1017.4
20260831165008 89 9 0.0 4.0 0.00 0.00 0.00 68 1017.4